QPF
0.00 0.00 0.00 0.00 0.00 0.01 0.01 0.01 0.01 0.01 0.01 0.02 0.03 0.04 0.02 0.02 0.01 0.00 0.00 0.01 0.01 0.02 0.03 0.03 0.03 0.03 0.03 0.03 0.03 0.03 0.03 0.03 0.04 0.03 0.03 0.02 0.02 0.02 0.02 0.02 0.02 0.01 0.01
0.01 0.01 0.00 0.00 0.00 0.00 0.01 0.01 0.01 0.01 0.01 0.02 0.02 0.03 0.03 0.02 0.02 0.01 0.00 0.01 0.01 0.01 0.02 0.03 0.03 0.03 0.03 0.02 0.03 0.03 0.03 0.03 0.03 0.03 0.03 0.03 0.02 0.03 0.03 0.02 0.01 0.01 0.01
0.00 0.01 0.01 0.00 0.00 0.00 0.00 0.01 0.01 0.01 0.01 0.01 0.02 0.02 0.03 0.03 0.02 0.02 0.01 0.01 0.01 0.00 0.01 0.03 0.04 0.04 0.04 0.04 0.04 0.04 0.03 0.03 0.03 0.02 0.03 0.03 0.03 0.03 0.03 0.03 0.02 0.02 0.01
0.01 0.01 0.01 0.02 0.01 0.00 0.00 0.01 0.01 0.01 0.01 0.01 0.01 0.02 0.03 0.03 0.03 0.02 0.02 0.01 0.01 0.01 0.01 0.01 0.03 0.04 0.05 0.06 0.05 0.05 0.04 0.03 0.03 0.02 0.02 0.03 0.03 0.03 0.03 0.03 0.03 0.03 0.02
0.01 0.01 0.00 0.01 0.02 0.02 0.01 0.01 0.01 0.02 0.02 0.01 0.01 0.01 0.02 0.03 0.03 0.03 0.03 0.02 0.01 0.01 0.01 0.01 0.01 0.02 0.03 0.04 0.04 0.05 0.06 0.05 0.05 0.03 0.02 0.02 0.02 0.02 0.02 0.02 0.03 0.04 0.04
0.01 0.00 0.00 0.00 0.01 0.01 0.02 0.02 0.01 0.02 0.02 0.02 0.02 0.02 0.02 0.02 0.02 0.03 0.03 0.03 0.02 0.01 0.02 0.01 0.01 0.01 0.02 0.02 0.03 0.03 0.04 0.06 0.07 0.05 0.03 0.03 0.02 0.02 0.01 0.01 0.02 0.03 0.04
0.01 0.01 0.00 0.01 0.01 0.00 0.01 0.01 0.02 0.02 0.02 0.02 0.03 0.03 0.02 0.02 0.02 0.02 0.03 0.03 0.02 0.02 0.02 0.02 0.01 0.01 0.01 0.01 0.01 0.02 0.03 0.04 0.07 0.07 0.05 0.03 0.03 0.02 0.02 0.02 0.02 0.02 0.03
0.01 0.01 0.01 0.01 0.01 0.00 0.00 0.00 0.01 0.01 0.02 0.03 0.03 0.04 0.04 0.03 0.03 0.02 0.02 0.03 0.03 0.03 0.03 0.03 0.03 0.02 0.01 0.01 0.01 0.01 0.02 0.03 0.05 0.07 0.06 0.05 0.04 0.03 0.03 0.02 0.02 0.02 0.03
0.01 0.01 0.01 0.01 0.01 0.01 0.00 0.00 0.00 0.00 0.01 0.03 0.04 0.04 0.04 0.04 0.03 0.03 0.02 0.02 0.02 0.03 0.03 0.03 0.04 0.03 0.02 0.01 0.01 0.01 0.01 0.02 0.03 0.05 0.05 0.05 0.05 0.05 0.04 0.04 0.03 0.03 0.03
0.01 0.01 0.01 0.00 0.00 0.01 0.01 0.00 0.00 0.00 0.00 0.01 0.03 0.04 0.04 0.04 0.04 0.04 0.03 0.03 0.03 0.03 0.03 0.03 0.04 0.04 0.03 0.03 0.02 0.01 0.01 0.02 0.03 0.04 0.05 0.05 0.05 0.06 0.06 0.05 0.04 0.04 0.03
0.01 0.00 0.01 0.01 0.01 0.01 0.01 0.00 0.00 0.00 0.01 0.02 0.03 0.03 0.02 0.02 0.02 0.03 0.04 0.03 0.03 0.03 0.03 0.03 0.03 0.04 0.03 0.03 0.03 0.03 0.02 0.02 0.03 0.03 0.04 0.05 0.05 0.05 0.06 0.05 0.04 0.03 0.03
0.01 0.00 0.00 0.01 0.01 0.01 0.01 0.01 0.01 0.01 0.01 0.01 0.02 0.02 0.03 0.02 0.02 0.02 0.03 0.03 0.03 0.03 0.04 0.03 0.03 0.03 0.03 0.02 0.02 0.02 0.02 0.02 0.02 0.03 0.04 0.05 0.05 0.05 0.05 0.06 0.05 0.04 0.03
0.00 0.00 0.00 0.00 0.00 0.00 0.01 0.01 0.01 0.01 0.01 0.01 0.01 0.01 0.02 0.02 0.02 0.02 0.03 0.03 0.03 0.03 0.03 0.03 0.03 0.02 0.02 0.02 0.02 0.02 0.02 0.02 0.02 0.02 0.04 0.05 0.06 0.05 0.05 0.05 0.06 0.05 0.04
0.00 0.00 0.00 0.00 0.00 0.00 0.01 0.01 0.01 0.01 0.01 0.01 0.01 0.01 0.01 0.02 0.02 0.01 0.02 0.04 0.05 0.04 0.04 0.03 0.03 0.02 0.02 0.02 0.02 0.02 0.01 0.01 0.02 0.02 0.03 0.05 0.06 0.06 0.05 0.05 0.06 0.07 0.05
0.01 0.01 0.01 0.00 0.00 0.00 0.00 0.01 0.01 0.01 0.01 0.01 0.01 0.01 0.01 0.02 0.02 0.01 0.02 0.03 0.05 0.05 0.04 0.03 0.03 0.03 0.02 0.01 0.01 0.01 0.01 0.01 0.02 0.02 0.02 0.03 0.05 0.06 0.06 0.06 0.06 0.07 0.07
0.01 0.01 0.01 0.00 0.00 0.01 0.01 0.01 0.01 0.01 0.01 0.01 0.01 0.01 0.01 0.01 0.01 0.01 0.01 0.02 0.03 0.04 0.04 0.03 0.02 0.03 0.03 0.02 0.02 0.01 0.01 0.02 0.02 0.02 0.02 0.03 0.03 0.04 0.05 0.05 0.06 0.06 0.06
0.01 0.01 0.01 0.01 0.01 0.01 0.01 0.01 0.01 0.01 0.01 0.01 0.01 0.01 0.01 0.01 0.01 0.01 0.01 0.01 0.02 0.03 0.04 0.03 0.02 0.02 0.03 0.02 0.02 0.01 0.02 0.01 0.01 0.02 0.02 0.02 0.02 0.03 0.03 0.03 0.04 0.05 0.05
0.01 0.01 0.01 0.01 0.01 0.01 0.01 0.01 0.01 0.01 0.02 0.02 0.01 0.01 0.01 0.01 0.01 0.01 0.01 0.01 0.01 0.02 0.03 0.03 0.03 0.02 0.03 0.03 0.02 0.02 0.02 0.01 0.01 0.01 0.01 0.02 0.02 0.02 0.02 0.03 0.03 0.03 0.04
0.01 0.01 0.01 0.01 0.01 0.01 0.01 0.01 0.01 0.01 0.01 0.01 0.01 0.01 0.01 0.01 0.01 0.01 0.01 0.01 0.01 0.01 0.02 0.02 0.02 0.02 0.02 0.03 0.03 0.02 0.02 0.01 0.01 0.01 0.00 0.01 0.01 0.02 0.02 0.02 0.02 0.03 0.03
0.01 0.01 0.01 0.01 0.01 0.01 0.01 0.01 0.01 0.01 0.01 0.01 0.01 0.01 0.01 0.01 0.01 0.01 0.01 0.01 0.01 0.01 0.02 0.02 0.02 0.02 0.02 0.02 0.03 0.03 0.02 0.01 0.00 0.00 0.00 0.01 0.01 0.02 0.02 0.02 0.02 0.02 0.02
0.01 0.01 0.01 0.01 0.01 0.00 0.00 0.00 0.01 0.01 0.01 0.00 0.00 0.00 0.00 0.00 0.00 0.01 0.01 0.01 0.01 0.01 0.01 0.02 0.02 0.02 0.02 0.02 0.03 0.03 0.02 0.01 0.01 0.00 0.00 0.00 0.01 0.01 0.02 0.03 0.03 0.03 0.03
0.01 0.01 0.01 0.01 0.00 0.00 0.01 0.01 0.01 0.01 0.01 0.01 0.01 0.01 0.00 0.01 0.01 0.01 0.01 0.01 0.02 0.02 0.02 0.02 0.03 0.02 0.02 0.01 0.01 0.02 0.02 0.02 0.01 0.01 0.01 0.01 0.01 0.01 0.01 0.01 0.02 0.03 0.03
0.01 0.01 0.01 0.01 0.00 0.00 0.01 0.01 0.02 0.02 0.02 0.01 0.01 0.01 0.00 0.00 0.01 0.01 0.01 0.01 0.01 0.02 0.02 0.03 0.03 0.02 0.02 0.01 0.01 0.01 0.02 0.01 0.01 0.01 0.01 0.01 0.01 0.01 0.01 0.01 0.02 0.02 0.03
0.01 0.01 0.01 0.01 0.01 0.00 0.01 0.01 0.02 0.02 0.02 0.01 0.01 0.00 0.00 0.00 0.00 0.01 0.01 0.01 0.01 0.01 0.01 0.01 0.02 0.01 0.01 0.01 0.02 0.02 0.02 0.02 0.01 0.01 0.00 0.01 0.01 0.01 0.01 0.01 0.02 0.02 0.02
0.01 0.01 0.01 0.01 0.00 0.00 0.01 0.01 0.02 0.02 0.02 0.01 0.01 0.00 0.00 0.00 0.00 0.01 0.02 0.01 0.01 0.01 0.01 0.01 0.01 0.02 0.02 0.02 0.03 0.03 0.04 0.04 0.03 0.02 0.01 0.01 0.01 0.01 0.01 0.01 0.01 0.02 0.02
0.01 0.01 0.01 0.00 0.00 0.00 0.01 0.01 0.01 0.02 0.02 0.01 0.01 0.01 0.01 0.01 0.01 0.01 0.02 0.02 0.02 0.01 0.01 0.01 0.01 0.01 0.01 0.01 0.02 0.02 0.03 0.03 0.03 0.03 0.02 0.01 0.01 0.01 0.01 0.01 0.01 0.01 0.01
MSLP
1029.81 1029.49 1029.11 1028.70 1028.27 1027.83 1027.38 1026.93 1026.48 1026.02 1025.55 1025.06 1024.56 1024.04 1023.53 1023.01 1022.52 1022.05 1021.60 1021.19 1020.80 1020.44 1020.09 1019.77 1019.47 1019.21 1018.98 1018.79 1018.66 1018.60 1018.60 1018.67 1018.81 1019.03 1019.31 1019.63 1019.98 1020.35 1020.69 1021.01 1021.28 1021.50 1021.69
1030.33 1029.97 1029.58 1029.18 1028.76 1028.33 1027.89 1027.45 1026.97 1026.48 1025.95 1025.40 1024.84 1024.27 1023.71 1023.17 1022.66 1022.17 1021.71 1021.28 1020.86 1020.47 1020.10 1019.75 1019.43 1019.15 1018.91 1018.72 1018.58 1018.50 1018.48 1018.53 1018.65 1018.84 1019.11 1019.43 1019.79 1020.18 1020.56 1020.91 1021.22 1021.47 1021.68
1030.80 1030.41 1030.01 1029.62 1029.22 1028.83 1028.42 1027.99 1027.51 1026.98 1026.40 1025.78 1025.14 1024.50 1023.89 1023.30 1022.76 1022.25 1021.78 1021.34 1020.92 1020.51 1020.13 1019.76 1019.43 1019.14 1018.88 1018.68 1018.52 1018.42 1018.37 1018.39 1018.47 1018.63 1018.87 1019.18 1019.55 1019.95 1020.36 1020.75 1021.11 1021.41 1021.65
1031.22 1030.81 1030.42 1030.04 1029.69 1029.34 1028.97 1028.56 1028.08 1027.52 1026.89 1026.20 1025.48 1024.76 1024.07 1023.43 1022.85 1022.33 1021.86 1021.42 1021.01 1020.61 1020.22 1019.85 1019.51 1019.20 1018.93 1018.70 1018.51 1018.37 1018.28 1018.24 1018.28 1018.40 1018.60 1018.88 1019.23 1019.63 1020.06 1020.49 1020.89 1021.24 1021.54
1031.60 1031.19 1030.80 1030.45 1030.14 1029.83 1029.51 1029.13 1028.66 1028.08 1027.41 1026.65 1025.85 1025.06 1024.29 1023.60 1022.98 1022.45 1021.97 1021.55 1021.15 1020.77 1020.40 1020.04 1019.69 1019.36 1019.06 1018.79 1018.56 1018.37 1018.22 1018.12 1018.09 1018.14 1018.28 1018.51 1018.82 1019.21 1019.64 1020.09 1020.52 1020.92 1021.28
1031.95 1031.53 1031.15 1030.82 1030.55 1030.29 1030.02 1029.67 1029.22 1028.64 1027.93 1027.13 1026.27 1025.40 1024.58 1023.84 1023.19 1022.63 1022.16 1021.75 1021.38 1021.02 1020.66 1020.31 1019.95 1019.61 1019.28 1018.97 1018.69 1018.43 1018.22 1018.04 1017.93 1017.89 1017.94 1018.10 1018.35 1018.68 1019.09 1019.53 1019.99 1020.43 1020.83
1032.25 1031.82 1031.44 1031.13 1030.89 1030.67 1030.43 1030.13 1029.70 1029.13 1028.42 1027.59 1026.70 1025.80 1024.93 1024.15 1023.47 1022.91 1022.44 1022.04 1021.67 1021.33 1020.99 1020.63 1020.28 1019.92 1019.56 1019.21 1018.88 1018.57 1018.28 1018.02 1017.82 1017.69 1017.64 1017.69 1017.85 1018.11 1018.46 1018.87 1019.32 1019.77 1020.22
1032.50 1032.05 1031.66 1031.35 1031.11 1030.91 1030.71 1030.44 1030.05 1029.52 1028.83 1028.02 1027.13 1026.22 1025.34 1024.54 1023.85 1023.27 1022.79 1022.38 1022.02 1021.67 1021.33 1020.97 1020.60 1020.23 1019.85 1019.48 1019.11 1018.75 1018.40 1018.08 1017.80 1017.57 1017.42 1017.36 1017.41 1017.57 1017.83 1018.17 1018.58 1019.02 1019.48
1032.66 1032.19 1031.77 1031.44 1031.19 1031.00 1030.81 1030.57 1030.23 1029.76 1029.13 1028.37 1027.52 1026.64 1025.78 1024.98 1024.27 1023.67 1023.16 1022.73 1022.34 1021.98 1021.62 1021.25 1020.87 1020.48 1020.09 1019.70 1019.32 1018.94 1018.57 1018.20 1017.86 1017.56 1017.31 1017.15 1017.08 1017.13 1017.28 1017.53 1017.87 1018.27 1018.70
1032.75 1032.23 1031.77 1031.40 1031.12 1030.91 1030.73 1030.52 1030.23 1029.82 1029.27 1028.59 1027.82 1027.00 1026.18 1025.40 1024.68 1024.06 1023.51 1023.03 1022.60 1022.19 1021.78 1021.39 1020.99 1020.60 1020.21 1019.83 1019.46 1019.10 1018.73 1018.35 1017.99 1017.64 1017.33 1017.08 1016.91 1016.84 1016.88 1017.02 1017.26 1017.59 1017.97
1032.75 1032.20 1031.69 1031.26 1030.93 1030.68 1030.49 1030.29 1030.04 1029.70 1029.24 1028.67 1027.99 1027.25 1026.48 1025.73 1025.02 1024.36 1023.77 1023.22 1022.72 1022.24 1021.78 1021.35 1020.93 1020.53 1020.16 1019.81 1019.48 1019.16 1018.82 1018.48 1018.13 1017.77 1017.43 1017.12 1016.88 1016.71 1016.64 1016.67 1016.81 1017.04 1017.36
1032.69 1032.10 1031.54 1031.05 1030.66 1030.36 1030.13 1029.93 1029.71 1029.42 1029.05 1028.57 1027.99 1027.33 1026.63 1025.91 1025.20 1024.51 1023.86 1023.25 1022.67 1022.12 1021.60 1021.11 1020.67 1020.28 1019.93 1019.62 1019.34 1019.07 1018.81 1018.52 1018.21 1017.89 1017.55 1017.22 1016.93 1016.69 1016.54 1016.47 1016.51 1016.64 1016.86
1032.57 1031.96 1031.36 1030.81 1030.36 1029.99 1029.71 1029.48 1029.26 1029.01 1028.69 1028.28 1027.79 1027.21 1026.57 1025.88 1025.18 1024.47 1023.77 1023.09 1022.44 1021.82 1021.24 1020.72 1020.25 1019.85 1019.52 1019.25 1019.02 1018.83 1018.63 1018.42 1018.18 1017.90 1017.60 1017.29 1016.98 1016.71 1016.50 1016.36 1016.31 1016.34 1016.47
1032.43 1031.80 1031.17 1030.58 1030.06 1029.62 1029.27 1028.99 1028.74 1028.48 1028.19 1027.83 1027.39 1026.87 1026.28 1025.63 1024.94 1024.22 1023.50 1022.78 1022.07 1021.40 1020.78 1020.22 1019.73 1019.32 1019.00 1018.75 1018.57 1018.42 1018.28 1018.14 1017.97 1017.76 1017.51 1017.23 1016.95 1016.67 1016.43 1016.25 1016.13 1016.09 1016.14
1032.25 1031.63 1030.98 1030.35 1029.77 1029.26 1028.83 1028.47 1028.16 1027.87 1027.56 1027.21 1026.80 1026.32 1025.77 1025.16 1024.50 1023.80 1023.07 1022.35 1021.63 1020.93 1020.28 1019.69 1019.19 1018.76 1018.43 1018.19 1018.01 1017.89 1017.79 1017.69 1017.57 1017.42 1017.22 1017.00 1016.75 1016.50 1016.26 1016.06 1015.90 1015.81 1015.79
1032.04 1031.43 1030.77 1030.12 1029.49 1028.91 1028.39 1027.94 1027.55 1027.19 1026.84 1026.46 1026.06 1025.60 1025.09 1024.52 1023.90 1023.24 1022.55 1021.85 1021.15 1020.47 1019.82 1019.22 1018.70 1018.26 1017.90 1017.63 1017.43 1017.29 1017.19 1017.10 1017.00 1016.89 1016.74 1016.56 1016.36 1016.14 1015.93 1015.73 1015.57 1015.45 1015.38
1031.77 1031.17 1030.52 1029.84 1029.17 1028.52 1027.92 1027.38 1026.90 1026.45 1026.04 1025.63 1025.20 1024.76 1024.27 1023.75 1023.20 1022.60 1021.99 1021.35 1020.70 1020.06 1019.44 1018.85 1018.31 1017.84 1017.44 1017.12 1016.86 1016.67 1016.53 1016.41 1016.31 1016.20 1016.08 1015.94 1015.78 1015.61 1015.43 1015.25 1015.10 1014.97 1014.88
1031.43 1030.82 1030.17 1029.47 1028.76 1028.06 1027.39 1026.77 1026.20 1025.67 1025.19 1024.73 1024.29 1023.84 1023.39 1022.92 1022.43 1021.92 1021.39 1020.84 1020.27 1019.69 1019.12 1018.55 1018.01 1017.51 1017.06 1016.67 1016.34 1016.08 1015.86 1015.70 1015.56 1015.44 1015.32 1015.20 1015.07 1014.93 1014.78 1014.64 1014.50 1014.38 1014.29
1030.98 1030.36 1029.69 1028.97 1028.23 1027.49 1026.77 1026.08 1025.44 1024.85 1024.30 1023.80 1023.34 1022.89 1022.46 1022.04 1021.62 1021.20 1020.76 1020.30 1019.82 1019.31 1018.79 1018.26 1017.72 1017.20 1016.70 1016.25 1015.85 1015.50 1015.21 1014.98 1014.79 1014.64 1014.51 1014.40 1014.28 1014.17 1014.05 1013.92 1013.81 1013.71 1013.63
1030.42 1029.76 1029.06 1028.32 1027.56 1026.79 1026.03 1025.30 1024.61 1023.98 1023.39 1022.86 1022.37 1021.93 1021.51 1021.13 1020.76 1020.40 1020.04 1019.66 1019.26 1018.82 1018.36 1017.86 1017.34 1016.81 1016.28 1015.78 1015.33 1014.92 1014.57 1014.28 1014.04 1013.86 1013.71 1013.59 1013.48 1013.37 1013.27 1013.17 1013.07 1012.98 1012.91
1029.76 1029.05 1028.31 1027.54 1026.75 1025.96 1025.18 1024.43 1023.73 1023.06 1022.45 1021.90 1021.39 1020.94 1020.52 1020.15 1019.81 1019.48 1019.17 1018.84 1018.50 1018.12 1017.70 1017.25 1016.76 1016.24 1015.71 1015.20 1014.72 1014.27 1013.89 1013.57 1013.31 1013.10 1012.94 1012.80 1012.69 1012.59 1012.49 1012.39 1012.30 1012.22 1012.16
1029.03 1028.25 1027.46 1026.65 1025.85 1025.05 1024.27 1023.51 1022.80 1022.13 1021.50 1020.92 1020.40 1019.92 1019.48 1019.09 1018.73 1018.41 1018.10 1017.79 1017.48 1017.13 1016.76 1016.34 1015.89 1015.41 1014.92 1014.43 1013.96 1013.53 1013.14 1012.82 1012.56 1012.35 1012.18 1012.05 1011.93 1011.83 1011.73 1011.63 1011.54 1011.46 1011.40
1028.26 1027.42 1026.57 1025.74 1024.91 1024.10 1023.32 1022.57 1021.85 1021.18 1020.54 1019.93 1019.37 1018.85 1018.37 1017.93 1017.53 1017.16 1016.82 1016.50 1016.18 1015.85 1015.51 1015.13 1014.73 1014.31 1013.88 1013.44 1013.03 1012.64 1012.30 1012.01 1011.77 1011.57 1011.42 1011.29 1011.19 1011.08 1010.98 1010.88 1010.78 1010.70 1010.63
1027.52 1026.62 1025.73 1024.86 1024.01 1023.19 1022.40 1021.65 1020.93 1020.24 1019.57 1018.94 1018.33 1017.75 1017.20 1016.68 1016.20 1015.76 1015.37 1015.00 1014.65 1014.32 1014.00 1013.66 1013.32 1012.97 1012.62 1012.27 1011.93 1011.62 1011.34 1011.10 1010.91 1010.75 1010.62 1010.51 1010.42 1010.33 1010.24 1010.14 1010.04 1009.95 1009.88
1026.84 1025.89 1024.97 1024.07 1023.20 1022.36 1021.56 1020.79 1020.05 1019.33 1018.64 1017.95 1017.28 1016.63 1016.00 1015.39 1014.82 1014.30 1013.82 1013.40 1013.01 1012.67 1012.36 1012.06 1011.78 1011.50 1011.23 1010.97 1010.72 1010.49 1010.28 1010.10 1009.96 1009.84 1009.75 1009.67 1009.60 1009.54 1009.47 1009.39 1009.31 1009.22 1009.14
1026.25 1025.29 1024.34 1023.41 1022.52 1021.65 1020.82 1020.02 1019.24 1018.49 1017.74 1017.00 1016.27 1015.54 1014.82 1014.13 1013.47 1012.86 1012.31 1011.82 1011.40 1011.04 1010.73 1010.46 1010.23 1010.02 1009.82 1009.63 1009.46 1009.29 1009.15 1009.02 1008.92 1008.84 1008.78 1008.74 1008.71 1008.68 1008.66 1008.62 1008.57 1008.51 1008.44
Thickness
5586 5587 5588 5590 5591 5593 5596 5598 5601 5603 5605 5608 5609 5611 5612 5613 5614 5615 5616 5617 5619 5621 5622 5624 5625 5627 5628 5629 5630 5630 5631 5632 5634 5634 5635 5636 5636 5637 5637 5637 5637 5638 5639
5576 5577 5578 5579 5581 5583 5585 5588 5590 5593 5596 5598 5600 5601 5603 5604 5605 5606 5607 5608 5610 5611 5613 5615 5617 5618 5619 5621 5622 5622 5623 5624 5626 5627 5628 5629 5630 5630 5631 5631 5632 5632 5633
5565 5566 5567 5568 5570 5572 5575 5578 5580 5583 5586 5588 5589 5591 5593 5594 5596 5597 5598 5599 5600 5602 5603 5605 5607 5608 5609 5611 5613 5614 5615 5616 5617 5619 5621 5622 5623 5624 5625 5625 5626 5627 5627
5554 5555 5556 5557 5559 5561 5564 5566 5569 5571 5573 5575 5578 5580 5583 5584 5586 5587 5588 5589 5590 5591 5592 5594 5596 5597 5599 5600 5603 5604 5606 5607 5609 5611 5613 5614 5616 5617 5618 5618 5619 5620 5621
5543 5544 5545 5545 5547 5549 5552 5554 5556 5559 5560 5563 5566 5569 5571 5573 5574 5576 5577 5578 5579 5581 5582 5583 5585 5586 5587 5589 5592 5594 5597 5598 5600 5603 5605 5607 5608 5609 5610 5611 5612 5613 5614
5531 5533 5533 5534 5535 5537 5539 5541 5544 5546 5548 5550 5554 5557 5559 5561 5563 5565 5566 5567 5568 5569 5571 5572 5574 5575 5576 5578 5580 5584 5587 5589 5591 5594 5596 5598 5600 5601 5603 5604 5605 5606 5608
5520 5520 5521 5521 5523 5524 5526 5528 5530 5532 5534 5537 5540 5542 5546 5550 5552 5553 5554 5555 5556 5557 5559 5560 5562 5563 5565 5566 5569 5572 5575 5579 5582 5584 5587 5589 5591 5593 5594 5596 5597 5599 5600
5507 5507 5507 5508 5509 5510 5512 5514 5516 5518 5519 5522 5523 5526 5530 5534 5538 5540 5541 5542 5543 5544 5546 5548 5549 5551 5553 5554 5557 5560 5564 5567 5571 5574 5577 5580 5582 5584 5586 5588 5589 5591 5592
5493 5494 5494 5495 5496 5497 5498 5499 5501 5503 5503 5506 5508 5510 5511 5514 5516 5523 5526 5528 5529 5530 5533 5535 5537 5539 5540 5542 5545 5548 5551 5554 5559 5562 5566 5569 5572 5574 5576 5578 5580 5582 5584
5479 5480 5481 5481 5482 5483 5484 5485 5486 5487 5488 5489 5492 5494 5496 5498 5498 5503 5509 5512 5515 5516 5518 5521 5523 5526 5528 5530 5532 5535 5539 5542 5546 5550 5553 5557 5561 5564 5566 5569 5571 5573 5575
5465 5465 5466 5466 5467 5467 5468 5469 5470 5472 5472 5473 5474 5476 5479 5481 5484 5485 5490 5494 5498 5501 5504 5507 5509 5512 5514 5517 5519 5522 5526 5529 5533 5537 5540 5544 5548 5552 5555 5558 5560 5563 5565
5449 5449 5451 5450 5451 5451 5451 5452 5453 5454 5455 5456 5458 5459 5461 5464 5466 5469 5472 5476 5480 5485 5488 5492 5495 5497 5499 5502 5505 5508 5511 5515 5519 5522 5526 5531 5535 5538 5542 5546 5549 5552 5555
5434 5434 5435 5434 5434 5434 5434 5434 5436 5437 5438 5440 5441 5442 5445 5448 5451 5453 5455 5459 5463 5468 5473 5477 5480 5482 5485 5488 5490 5493 5497 5500 5504 5508 5512 5516 5520 5524 5528 5532 5536 5539 5542
5419 5418 5418 5417 5417 5416 5417 5418 5419 5420 5422 5423 5424 5426 5428 5430 5434 5436 5438 5440 5444 5450 5456 5460 5463 5466 5469 5472 5475 5479 5482 5485 5489 5493 5497 5502 5506 5509 5513 5517 5521 5525 5529
5403 5402 5401 5400 5399 5400 5400 5401 5402 5403 5405 5406 5407 5409 5411 5413 5416 5418 5421 5424 5426 5430 5437 5443 5445 5449 5451 5455 5459 5462 5466 5470 5474 5478 5482 5486 5491 5494 5499 5503 5507 5511 5515
5386 5385 5384 5383 5383 5383 5384 5385 5386 5387 5388 5390 5391 5393 5394 5396 5399 5401 5404 5407 5409 5412 5417 5425 5427 5430 5433 5437 5442 5446 5450 5454 5459 5463 5467 5471 5476 5480 5484 5488 5492 5496 5500
5369 5368 5368 5367 5367 5368 5368 5369 5370 5371 5373 5374 5375 5377 5379 5381 5382 5384 5386 5389 5392 5395 5399 5406 5409 5413 5416 5420 5425 5429 5433 5438 5442 5447 5451 5456 5460 5464 5468 5473 5477 5481 5485
5353 5353 5352 5352 5352 5352 5353 5354 5355 5357 5358 5359 5360 5361 5363 5365 5367 5368 5370 5373 5375 5379 5382 5387 5392 5395 5399 5403 5408 5412 5417 5421 5426 5431 5435 5440 5445 5449 5453 5457 5461 5465 5469
5337 5337 5337 5337 5337 5338 5339 5340 5341 5342 5343 5344 5345 5347 5348 5350 5352 5353 5354 5357 5360 5363 5366 5370 5375 5379 5383 5386 5391 5396 5400 5405 5409 5414 5419 5424 5428 5433 5437 5441 5445 5449 5454
5322 5322 5322 5323 5323 5324 5325 5326 5327 5328 5329 5330 5331 5333 5334 5336 5337 5338 5340 5342 5344 5346 5349 5352 5357 5362 5366 5370 5372 5377 5383 5387 5392 5397 5402 5407 5411 5415 5420 5425 5430 5434 5438
5308 5308 5308 5308 5309 5310 5312 5313 5314 5315 5316 5317 5318 5319 5321 5323 5324 5325 5327 5328 5329 5330 5332 5336 5340 5345 5349 5352 5355 5360 5365 5369 5375 5379 5385 5390 5395 5400 5403 5407 5412 5416 5421
5294 5294 5295 5295 5296 5298 5300 5302 5303 5303 5304 5305 5306 5307 5308 5310 5311 5312 5314 5315 5316 5317 5318 5321 5325 5328 5333 5335 5339 5342 5347 5352 5358 5364 5367 5372 5377 5382 5386 5391 5395 5400 5405
5281 5281 5282 5283 5284 5285 5288 5290 5291 5291 5292 5292 5293 5294 5295 5297 5297 5298 5299 5301 5302 5303 5306 5308 5310 5313 5316 5320 5323 5327 5330 5334 5341 5346 5348 5355 5360 5364 5370 5375 5379 5384 5388
5269 5269 5270 5270 5271 5273 5275 5277 5278 5279 5279 5280 5280 5281 5282 5283 5284 5284 5285 5287 5288 5289 5291 5293 5297 5300 5302 5304 5307 5311 5314 5319 5325 5329 5332 5337 5344 5348 5354 5359 5363 5367 5372
5257 5257 5258 5258 5259 5261 5262 5265 5266 5266 5267 5268 5268 5269 5269 5271 5272 5272 5273 5273 5275 5276 5277 5279 5282 5285 5288 5290 5292 5295 5298 5302 5308 5314 5316 5321 5327 5332 5338 5344 5348 5351 5356
5246 5246 5247 5248 5248 5250 5251 5253 5254 5255 5256 5257 5257 5257 5258 5259 5259 5259 5259 5260 5261 5263 5263 5265 5268 5270 5273 5276 5278 5280 5283 5286 5291 5297 5302 5304 5309 5313 5320 5328 5332 5335 5339